OBJECT CY, 66760

Orbit data source: Space-Track

You're viewing an Uncataloged Satellite

Recently launched and/or uncataloged satellites may have evolving metadata. Metadata may include but not limited to: Owner, Maufacturer, Bus, Motor, and Mission.

OBJECT CY, 66760 is a satellite in SSO that was launched on Fri, 28 Nov 2025 UTC via an FALCON 9 launch vehicle from the Air Force Western Test Range (AFWTR). Unknown objects in Earth's orbit typically refer to objects detected orbiting the Earth but have not yet been identified or cataloged. These objects could be anything from previously untracked satellites, spent rocket stages, debris from satellite collisions, or even natural meteoroids temporarily captured by Earth's gravity.

Loading next visibility...
Identifier
66760, 2025-276CY
Orbit
SSO
Country
Flag of TBDTBD
Related business
None
Manufacturer
Unknown
Mission
Operational Commercial Sigint
Bus & Motor
Unknown
Mass
Unknown
Launch date (UTC)
2025-11-28 (6 months ago)
Launch vehicle
FALCON 9
Launch site
Air Force Western Test Range (AFWTR)
Object type
Unknown
Shape & HBR
Box + 2 Pan, 0.1 m
Radar Cross Section
0.080 m²

Expand to show TLE details & history
Last TLE update: 11 hours ago

TLE from 11 hours ago
0 OBJECT CY
1 66760U 25276CY  26144.75564663  .00004247  00000-0  20022-3 0  9992
2 66760  97.4193 218.8371 0001767  75.9681 284.1750 15.20024879 26875
Epoch: 2026-05-24T18:08Z
TLE epoch observation values (Epoch: 2026-05-24T18:08:07.868Z)
Latitude
-0.00009°
Longitude
64.45109°
Altitude
508.558 km
Speed
7.61 km/s
True Right ascension
14h 35m 20s
True Declination
0° 00' 00"
Sunlit
Object was in full shadow at epoch
Visualization orbit readout
Latitude
Unknown
Longitude
Unknown
Altitude
Unknown
Speed
Unknown
Apparent Right ascension
Unknown
Apparent Declination
Unknown
Sunlit
N/A
Visualization observer readout
Local Sidereal Time
14:29:25
Azimuth
Unknown
Elevation
Unknown
Doppler factor
Unknown
Orbital elements
Apogee altitude
503.948 km
Perigee altitude
501.516 km
Semi-major axis
6,880.869 km
Eccentricity
0.00018
Inclination
97.4193°
RAAN
218.8371°
Arg. of periapsis
75.9681°
True anomaly
284.15537°
Mean anomaly
284.175°
Eccentric anomaly
284.16518°
Mean motion
3.80258 °/min
Orbital period
94.67 mins
BSTAR
0.00020022
Loading maneuver chart data...
Computing Atmospheric mass density...
Loading historical data...
Loading historical data...
Loading historical data...
Loading historical data...
Loading historical data...
Loading historical data...
Loading historical data...

Documentation

Showing up to 5 results
|